This is the latest recevied weather packets stored in our database for station/object KE8WAY. If no packets are shown the sender has not sent any weather packets the latest 10 day(s).
| Time | Temp. | Humidity | Pressure | Rain* | Wind** | Luminosity | Snow |
|---|---|---|---|---|---|---|---|
| 1777489965 | 11.11° C | 77% | 1009.6 hPa | 0 mm | - | 379 W/m² | - |
| 1777489663 | 10.56° C | 77% | 1009.6 hPa | 0 mm | - | 352 W/m² | - |
| 1777489358 | 10.56° C | 79% | 1009.9 hPa | 0 mm | - | 220 W/m² | - |
| 1777489055 | 11.67° C | 78% | 1009.7 hPa | 0 mm | - | 303 W/m² | - |
| 1777488752 | 10.56° C | 79% | 1009.5 hPa | 0 mm | - | 479 W/m² | - |
| 1777488450 | 10° C | 81% | 1009.9 hPa | 0 mm | - | 549 W/m² | - |
| 1777488148 | 10° C | 83% | 1010 hPa | 0 mm | - | 269 W/m² | - |
| 1777487846 | 10° C | 87% | 1010 hPa | 0 mm | - | 210 W/m² | - |
| 1777487544 | 10° C | 88% | 1010 hPa | 0 mm | - | 239 W/m² | - |
| 1777487241 | 9.44° C | 87% | 1010.1 hPa | 0 mm | - | 188 W/m² | - |
| 1777486937 | 9.44° C | 88% | 1009.9 hPa | 0 mm | - | 183 W/m² | - |
| 1777486633 | 9.44° C | 89% | 1009.9 hPa | 0 mm | - | 214 W/m² | - |
| 1777486332 | 9.44° C | 88% | 1010.2 hPa | 0 mm | - | 98 W/m² | - |
| 1777486029 | 9.44° C | 89% | 1010 hPa | 0 mm | - | 81 W/m² | - |
| 1777485725 | 8.89° C | 89% | 1010.1 hPa | 0 mm | - | 87 W/m² | - |
| 1777485421 | 8.89° C | 89% | 1010 hPa | 0 mm | - | 62 W/m² | - |
| 1777485116 | 9.44° C | 89% | 1010.1 hPa | 0 mm | - | 66 W/m² | - |
| 1777484814 | 9.44° C | 90% | 1010.1 hPa | 0 mm | - | 65 W/m² | - |
| 1777484510 | 9.44° C | 88% | 1010.1 hPa | 0 mm | - | 77 W/m² | - |
| 1777484208 | 9.44° C | 88% | 1010.2 hPa | 0 mm | - | 69 W/m² | - |
| 1777483904 | 9.44° C | 88% | 1010.1 hPa | 0 mm | - | 82 W/m² | - |
| 1777483600 | 9.44° C | 87% | 1010.1 hPa | 0 mm | - | 84 W/m² | - |
| 1777483294 | 9.44° C | 86% | 1010.3 hPa | 0 mm | - | 62 W/m² | - |
| 1777482991 | 9.44° C | 85% | 1010.2 hPa | 0 mm | - | 111 W/m² | - |
| 1777482687 | 10° C | 84% | 1010.5 hPa | 0 mm | - | 115 W/m² | - |
* Rain latest hour (hover to see other rain measurements)
** Current wind speed in m/s (hover to see current wind gust speed)